Location: Franzen
(48.6167°N, 15.3833°E)
Time: 13:30:04
(UTC+00:00)

Terra - Pass Details

Date: 22 April 2021
Orbit: 701 x 703 km, 98.2° (Epoch: 16 May)

Event Time Altitude Azimuth Distance (km) Brightness Sun altitude
Exits shadow 19:24:59 14° 93° (E) 1,926 3.6 -13.1°
Maximum altitude 19:27:16 19° 59° (ENE) 1,659 3.5 -13.4°
Drops below altitude 10° 19:30:33 10° 16° (NNE) 2,182 4.7 -13.8°
Sets 19:33:23 0° 358° (N) 3,105 5.8 -14.2°
